Hourly Weather Kistenli-Bogdanovo

Today, 29 July, Thursday

Time Temperature Precipitation Wind Pressure Humidity
00:00 +13°C° 0 mm 1 mps 740 mmHg 55%
01:00 +13°C° 0 mm 1 mps 740 mmHg 57%
02:00 +12°C° 0 mm 1 mps 740 mmHg 59%
03:00 +12°C° 0 mm 1 mps 740 mmHg 60%
04:00 +11°C° 0 mm 0 mps 741 mmHg 62%
05:00 +13°C° 0 mm 1 mps 741 mmHg 57%
06:00 +15°C° 0 mm 1 mps 741 mmHg 52%
07:00 +18°C° 0 mm 1 mps 741 mmHg 47%
08:00 +19°C° 0 mm 2 mps 741 mmHg 42%
09:00 +21°C° 0 mm 3 mps 741 mmHg 38%
10:00 +24°C° 0 mm 3 mps 741 mmHg 31%
11:00 +25°C° 0 mm 3 mps 740 mmHg 28%
12:00 +26°C° 0 mm 3 mps 740 mmHg 25%
13:00 +27°C° 0 mm 3 mps 740 mmHg 22%
14:00 +27°C° 0 mm 4 mps 740 mmHg 21%
15:00 +27°C° 0 mm 4 mps 739 mmHg 20%
16:00 +28°C° 0 mm 4 mps 739 mmHg 20%
17:00 +27°C° 0 mm 3 mps 739 mmHg 23%
18:00 +26°C° 0 mm 3 mps 738 mmHg 26%
19:00 +25°C° 0 mm 2 mps 738 mmHg 29%
20:00 +23°C° 0 mm 2 mps 738 mmHg 32%
21:00 +21°C° 0 mm 2 mps 738 mmHg 34%
22:00 +20°C° 0 mm 2 mps 738 mmHg 37%
23:00 +20°C° 0 mm 2 mps 738 mmHg 42%

Tomorrow, 30 July, Friday

Time Temperature Precipitation Wind Pressure Humidity
00:00 +20°C° 0 mm 2 mps 737 mmHg 48%
01:00 +20°C° 0 mm 2 mps 737 mmHg 53%
02:00 +20°C° 0 mm 2 mps 737 mmHg 53%
03:00 +20°C° 0 mm 3 mps 737 mmHg 52%
04:00 +20°C° 0 mm 4 mps 736 mmHg 52%
05:00 +19°C° 0.4 mm 4 mps 736 mmHg 64%
06:00 +18°C° 0.4 mm 4 mps 736 mmHg 77%
07:00 +16°C° 0.4 mm 5 mps 736 mmHg 90%
08:00 +20°C° 0.1 mm 5 mps 736 mmHg 80%
09:00 +22°C° 0.1 mm 6 mps 736 mmHg 69%
10:00 +24°C° 0.1 mm 7 mps 735 mmHg 58%
11:00 +26°C° 0 mm 7 mps 735 mmHg 54%
12:00 +28°C° 0 mm 7 mps 735 mmHg 50%
13:00 +29°C° 0 mm 7 mps 735 mmHg 46%
14:00 +29°C° 0 mm 7 mps 735 mmHg 45%
15:00 +29°C° 0 mm 7 mps 735 mmHg 44%
16:00 +30°C° 0 mm 7 mps 735 mmHg 42%
17:00 +29°C° 0 mm 6 mps 735 mmHg 44%
18:00 +28°C° 0 mm 5 mps 735 mmHg 45%
19:00 +28°C° 0 mm 4 mps 736 mmHg 47%
20:00 +26°C° 0 mm 3 mps 736 mmHg 54%
21:00 +24°C° 0 mm 2 mps 736 mmHg 62%
22:00 +20°C° 0 mm 0 mps 736 mmHg 69%
23:00 +22°C° 0 mm 1 mps 736 mmHg 70%

Day after tomorrow, 31 July, Saturday

Time Temperature Precipitation Wind Pressure Humidity
00:00 +21°C° 0 mm 1 mps 736 mmHg 71%
01:00 +20°C° 0 mm 2 mps 736 mmHg 71%
02:00 +20°C° 0 mm 2 mps 736 mmHg 72%
03:00 +20°C° 0 mm 2 mps 736 mmHg 72%
04:00 +20°C° 0 mm 2 mps 736 mmHg 72%
05:00 +21°C° 0 mm 2 mps 736 mmHg 68%
06:00 +22°C° 0 mm 3 mps 736 mmHg 64%
07:00 +24°C° 0 mm 3 mps 736 mmHg 59%
08:00 +26°C° 0.1 mm 4 mps 736 mmHg 56%
09:00 +27°C° 0.1 mm 5 mps 736 mmHg 54%
10:00 +28°C° 0.1 mm 6 mps 736 mmHg 51%
11:00 +30°C° 0 mm 6 mps 736 mmHg 46%
12:00 +32°C° 0 mm 7 mps 736 mmHg 42%
13:00 +34°C° 0 mm 7 mps 736 mmHg 37%
14:00 +33°C° 0 mm 7 mps 736 mmHg 38%
15:00 +33°C° 0 mm 8 mps 736 mmHg 38%
16:00 +32°C° 0 mm 8 mps 736 mmHg 39%
17:00 +31°C° 0 mm 8 mps 736 mmHg 39%
18:00 +29°C° 0 mm 7 mps 736 mmHg 40%
19:00 +29°C° 0 mm 6 mps 736 mmHg 40%
20:00 +27°C° 0 mm 5 mps 736 mmHg 49%
21:00 +25°C° 0 mm 4 mps 736 mmHg 58%
22:00 +24°C° 0 mm 2 mps 736 mmHg 67%
23:00 +23°C° 1.3 mm 2 mps 736 mmHg 74%

1 August, Sunday

Time Temperature Precipitation Wind Pressure Humidity
00:00 +21°C° 1.3 mm 2 mps 737 mmHg 82%
01:00 +20°C° 1.3 mm 2 mps 737 mmHg 89%
02:00 +21°C° 0.4 mm 1 mps 737 mmHg 90%
03:00 +21°C° 0.4 mm 1 mps 737 mmHg 91%
04:00 +20°C° 0.4 mm 1 mps 737 mmHg 92%
05:00 +20°C° 0 mm 2 mps 737 mmHg 89%
06:00 +21°C° 0 mm 2 mps 738 mmHg 85%
07:00 +23°C° 0 mm 2 mps 738 mmHg 81%
08:00 +25°C° 0 mm 3 mps 738 mmHg 69%
09:00 +27°C° 0 mm 4 mps 739 mmHg 56%
10:00 +29°C° 0 mm 4 mps 739 mmHg 44%
11:00 +29°C° 0 mm 5 mps 739 mmHg 39%
12:00 +30°C° 0 mm 5 mps 739 mmHg 34%
13:00 +32°C° 0 mm 5 mps 739 mmHg 29%
14:00 +32°C° 0 mm 5 mps 739 mmHg 28%
15:00 +33°C° 0 mm 5 mps 739 mmHg 27%
16:00 +33°C° 0 mm 5 mps 739 mmHg 26%
17:00 +32°C° 0 mm 5 mps 739 mmHg 28%
18:00 +30°C° 0 mm 4 mps 739 mmHg 31%
19:00 +29°C° 0 mm 3 mps 739 mmHg 33%
20:00 +27°C° 0 mm 3 mps 739 mmHg 37%
21:00 +25°C° 0 mm 2 mps 739 mmHg 41%
22:00 +23°C° 0 mm 1 mps 739 mmHg 45%
23:00 +23°C° 0 mm 1 mps 740 mmHg 47%

2 August, Monday

Time Temperature Precipitation Wind Pressure Humidity
00:00 +22°C° 0 mm 1 mps 740 mmHg 50%
01:00 +21°C° 0 mm 1 mps 740 mmHg 52%
02:00 +21°C° 0 mm 1 mps 740 mmHg 54%
03:00 +18°C° 0 mm 0 mps 740 mmHg 56%
04:00 +18°C° 0 mm 0 mps 740 mmHg 57%
05:00 +19°C° 0 mm 0 mps 740 mmHg 54%
06:00 +23°C° 0 mm 1 mps 741 mmHg 51%
07:00 +24°C° 0 mm 1 mps 741 mmHg 47%
08:00 +26°C° 0 mm 2 mps 741 mmHg 42%
09:00 +28°C° 0 mm 2 mps 741 mmHg 37%
10:00 +30°C° 0 mm 3 mps 741 mmHg 32%
11:00 +33°C° 0 mm 3 mps 741 mmHg 29%
12:00 +34°C° 0 mm 3 mps 741 mmHg 26%
13:00 +35°C° 0 mm 3 mps 740 mmHg 23%
14:00 +35°C° 0 mm 3 mps 740 mmHg 22%
15:00 +35°C° 0 mm 3 mps 740 mmHg 21%
16:00 +36°C° 0 mm 3 mps 740 mmHg 20%
17:00 +35°C° 0 mm 3 mps 740 mmHg 23%
18:00 +34°C° 0 mm 2 mps 740 mmHg 26%
19:00 +32°C° 0 mm 2 mps 739 mmHg 29%
20:00 +31°C° 0 mm 2 mps 739 mmHg 30%
21:00 +29°C° 0 mm 2 mps 739 mmHg 32%
22:00 +28°C° 0 mm 2 mps 739 mmHg 34%
23:00 +27°C° 0 mm 2 mps 739 mmHg 37%

3 August, Tuesday

Time Temperature Precipitation Wind Pressure Humidity
00:00 +26°C° 0 mm 2 mps 740 mmHg 39%
01:00 +25°C° 0 mm 2 mps 740 mmHg 41%
02:00 +24°C° 0 mm 2 mps 740 mmHg 44%
03:00 +23°C° 0 mm 2 mps 740 mmHg 46%
04:00 +23°C° 0 mm 2 mps 740 mmHg 49%
05:00 +24°C° 0 mm 2 mps 740 mmHg 46%
06:00 +25°C° 0 mm 2 mps 740 mmHg 44%
07:00 +27°C° 0 mm 2 mps 741 mmHg 41%
08:00 +29°C° 0 mm 3 mps 741 mmHg 36%
09:00 +33°C° 0 mm 3 mps 741 mmHg 31%
10:00 +36°C° 0 mm 3 mps 741 mmHg 27%
11:00 +37°C° 0 mm 4 mps 741 mmHg 24%
12:00 +38°C° 0 mm 4 mps 741 mmHg 22%
13:00 +40°C° 0 mm 4 mps 740 mmHg 20%
14:00 +38°C° 0 mm 4 mps 740 mmHg 20%
15:00 +38°C° 0 mm 3 mps 740 mmHg 21%
16:00 +37°C° 0 mm 3 mps 740 mmHg 21%
17:00 +36°C° 0 mm 3 mps 739 mmHg 24%
18:00 +35°C° 0 mm 2 mps 739 mmHg 26%
19:00 +34°C° 0 mm 2 mps 739 mmHg 28%
20:00 +31°C° 0 mm 2 mps 739 mmHg 30%
21:00 +30°C° 0 mm 2 mps 740 mmHg 32%
22:00 +29°C° 0 mm 2 mps 740 mmHg 34%
23:00 +28°C° 0 mm 2 mps 740 mmHg 35%
Show more